SCP
1 0 0 0 0 0 0 0 0 0 0 0 0 0 0 0 0 0 0 0 0 0 0 0 0 0 0 0 0 0 0 0 0 0 0 0 0 0 0 0 0 0 0
1 0 0 0 0 0 0 0 0 0 0 0 0 0 0 0 0 0 0 0 0 0 0 0 0 0 0 0 0 0 0 0 0 0 0 0 0 0 0 0 0 0 0
1 0 0 0 0 0 0 0 0 0 0 0 0 0 0 0 0 0 0 0 0 0 0 0 0 0 0 0 0 0 0 0 0 0 0 0 0 0 1 1 0 0 0
0 0 0 0 0 0 0 0 0 0 0 0 0 0 0 0 0 0 0 0 0 0 0 0 0 0 0 0 0 0 0 0 0 0 0 0 0 1 1 1 1 0 0
0 0 0 0 0 0 0 0 0 0 0 0 0 0 0 0 0 0 0 0 0 0 0 0 0 0 0 0 0 0 0 0 0 0 0 0 1 1 1 1 1 0 0
0 0 0 0 0 0 0 0 0 0 0 0 0 0 0 0 0 0 0 0 0 0 0 0 0 0 0 0 0 0 0 0 0 0 0 0 1 1 1 1 1 1 1
1 0 0 0 0 0 0 0 0 0 0 0 0 0 0 0 0 0 0 0 0 0 0 0 0 0 0 0 0 0 0 0 0 0 0 0 1 1 1 1 1 1 1
1 0 0 0 0 0 0 0 0 0 0 0 0 0 0 0 0 0 0 0 0 0 0 0 0 0 0 0 0 0 0 0 0 0 0 1 1 1 1 1 1 1 1
1 0 0 0 0 0 0 0 0 0 0 0 0 0 0 0 0 0 0 0 0 0 0 0 0 0 0 0 0 0 0 0 0 0 0 1 1 1 1 1 1 1 1
1 0 0 0 0 0 0 0 0 0 0 0 0 0 0 0 0 0 0 1 0 0 0 0 0 0 0 0 0 0 0 0 0 0 0 1 2 2 2 2 1 1 1
1 1 0 0 0 0 0 0 0 0 0 0 0 0 0 0 0 1 1 1 1 1 0 0 0 0 0 0 1 1 1 0 0 0 1 1 2 3 2 2 1 1 1
1 1 1 1 1 0 0 1 0 0 1 0 1 1 0 0 1 1 1 1 1 1 1 0 0 0 0 0 1 1 1 1 0 0 1 2 2 3 2 2 2 1 1
1 1 1 1 1 1 1 1 1 1 1 1 1 1 1 1 1 1 1 1 1 1 1 1 1 1 1 1 1 1 1 1 1 1 1 2 2 2 2 2 2 1 1
1 1 1 1 1 1 1 1 1 1 1 1 2 2 1 1 1 1 1 2 1 1 1 1 1 1 1 1 1 1 1 1 1 1 1 2 2 2 2 2 1 1 1
1 1 1 2 2 1 1 1 1 1 1 2 2 2 2 1 1 1 2 2 2 1 1 1 1 1 1 1 1 1 1 1 1 1 2 2 2 2 1 1 1 1 1
2 2 2 3 2 2 2 1 1 1 1 2 2 3 2 2 2 2 2 2 2 1 1 1 1 1 1 1 1 1 1 1 1 1 2 2 2 2 1 1 1 1 1
3 3 3 3 3 3 2 2 1 1 2 2 3 4 4 3 3 3 3 2 2 2 2 2 1 1 1 1 1 1 1 1 1 1 1 2 2 2 2 2 1 1 1
4 5 5 4 3 3 3 3 2 2 3 4 5 5 5 4 4 3 3 3 3 3 3 2 2 1 1 1 1 1 1 1 1 1 2 2 2 1 1 2 2 2 1
6 6 6 5 5 5 5 4 3 4 4 5 7 7 7 6 5 4 4 4 4 4 3 3 2 2 1 1 1 1 1 1 2 2 2 2 2 2 2 2 2 2 1
8 8 8 7 7 7 6 5 4 5 5 6 7 7 7 6 5 5 5 4 4 4 4 3 3 2 1 1 1 1 1 1 2 2 2 2 2 2 2 2 2 2 1
10 11 10 8 8 8 7 6 5 5 5 5 5 6 6 6 6 5 5 5 5 5 4 4 3 2 2 1 1 1 1 1 2 2 2 1 1 1 2 1 1 1 1
12 12 11 9 8 8 7 7 6 5 5 4 4 4 5 6 6 5 5 5 5 5 5 5 4 3 2 2 1 1 1 1 1 2 2 1 1 1 1 1 1 1 2
11 12 12 10 9 8 8 8 7 6 5 4 4 4 5 5 5 5 5 5 5 5 5 5 4 3 2 2 2 1 1 1 1 1 1 1 2 2 1 1 1 1 2
12 12 13 11 9 9 8 8 7 6 5 5 5 5 5 5 5 5 5 5 5 5 5 4 3 3 2 2 1 1 1 1 1 1 1 1 2 2 2 1 1 2 2
14 13 13 12 10 9 9 8 7 6 5 5 5 6 6 5 5 5 5 5 6 5 4 3 2 2 2 1 1 1 1 1 1 1 1 1 1 2 2 2 2 2 2
14 14 13 12 11 10 9 8 8 7 6 5 5 6 6 6 5 4 5 5 5 5 4 3 2 2 2 1 1 2 1 1 2 2 1 1 1 1 2 2 2 2 2
Wind_Speed
17 16 16 14 13 13 13 13 12 12 11 10 10 9 10 10 11 10 10 10 10 10 10 8 7 6 6 7 7 8 8 10 11 11 11 10 9 8 7 7 8 10 10
20 17 16 14 13 12 12 12 11 11 11 10 10 9 9 9 9 9 9 9 9 10 9 8 7 7 6 7 7 6 6 6 8 8 9 9 8 7 6 8 11 8 9
20 17 16 14 13 12 11 11 11 11 11 10 10 9 9 9 9 8 8 8 8 9 8 7 7 7 7 6 6 5 4 4 5 6 8 7 8 8 7 9 10 9 8
19 16 15 15 14 13 12 11 12 11 11 10 10 9 9 9 8 8 8 7 7 7 7 6 6 6 6 6 5 5 4 4 5 7 7 6 8 10 9 8 7 7 6
18 17 16 16 14 13 12 11 11 11 11 10 10 9 9 8 8 8 7 7 6 6 5 5 5 5 6 6 5 5 5 5 7 9 8 5 6 13 11 9 6 5 5
19 18 16 16 15 14 13 12 11 11 10 10 9 9 8 7 7 7 6 6 5 5 4 4 4 4 5 5 6 6 6 7 8 8 9 4 8 12 12 10 8 6 5
19 18 16 16 15 14 13 13 12 11 10 9 9 8 8 7 6 6 5 5 4 4 3 3 3 4 4 5 6 6 7 8 8 9 8 4 8 14 13 11 9 8 7
19 18 15 16 15 14 13 12 12 11 10 9 9 9 8 7 6 5 4 4 3 3 3 3 3 4 4 5 6 6 7 9 10 10 8 2 13 15 14 12 11 10 9
19 18 14 14 13 13 12 12 11 11 10 9 8 8 7 7 6 6 5 5 5 4 4 5 5 6 6 6 7 8 9 10 9 8 10 2 13 14 13 12 12 11 12
17 16 15 14 12 11 11 11 11 10 10 9 8 8 7 7 8 9 8 8 7 7 7 7 8 8 8 9 10 10 11 10 10 11 7 5 14 13 13 12 12 12 13
14 13 14 15 13 12 12 12 11 10 9 9 8 9 8 8 10 9 11 11 11 9 9 9 10 10 10 11 13 13 11 7 10 9 7 8 14 13 12 11 12 12 13
12 12 10 14 12 12 10 10 9 9 9 8 8 9 8 8 5 7 10 13 12 11 10 11 11 10 10 8 11 14 7 10 11 8 5 10 13 13 12 11 11 12 13
11 10 8 12 9 9 8 9 7 6 7 8 9 9 6 5 4 5 5 7 7 9 8 9 10 8 8 7 5 7 9 8 5 4 2 9 11 11 11 11 11 12 13
12 10 8 10 6 4 6 7 5 5 7 6 7 6 5 2 2 0 1 3 4 4 4 4 4 7 7 7 6 6 8 6 4 2 3 9 10 10 11 11 12 13 14
12 11 8 8 7 3 1 1 4 3 5 4 6 5 4 2 2 1 1 0 2 2 3 3 3 4 4 5 5 5 5 5 5 4 2 10 12 12 13 13 13 14 15
13 12 10 8 8 5 3 2 2 2 2 3 5 8 5 2 2 1 1 1 3 2 1 2 4 3 4 4 5 4 4 5 5 5 4 7 13 14 14 14 14 14 14
13 12 11 10 10 7 6 5 4 4 4 3 3 6 6 4 3 3 2 2 2 2 2 3 4 3 4 4 5 5 5 5 5 4 4 3 5 13 16 15 15 14 14
13 11 11 11 12 10 7 6 4 4 2 3 3 4 6 5 4 3 2 2 2 2 2 2 3 3 3 4 4 5 4 4 6 5 5 5 4 3 8 15 15 13 14
10 11 9 8 11 11 9 5 4 2 0 1 2 2 4 4 4 3 2 2 2 2 2 4 1 2 3 4 5 6 5 5 5 7 6 5 4 3 4 7 14 14 16
9 10 9 7 7 8 7 5 3 2 1 1 1 1 3 3 3 2 2 3 3 2 1 2 3 3 3 4 7 7 5 6 5 5 5 5 5 6 6 3 5 8 12
10 10 9 9 7 6 5 6 5 4 2 2 1 2 2 3 3 2 2 1 2 2 2 2 2 4 4 4 4 5 6 8 6 4 4 4 4 4 4 5 4 3 3
10 10 9 8 8 8 6 5 3 3 3 3 3 3 3 3 3 4 3 2 2 1 2 3 2 3 4 4 3 3 4 5 2 4 4 5 5 3 3 4 3 4 3
9 10 9 8 8 8 7 5 4 3 3 4 5 4 5 5 4 3 3 2 2 2 2 3 3 5 5 4 3 3 3 3 3 4 4 4 4 3 3 3 3 2 1
7 8 7 7 7 6 6 6 6 6 5 5 4 4 4 5 4 4 3 3 3 2 3 3 4 4 5 5 4 4 5 4 3 4 3 3 4 5 4 3 2 1 2
2 4 6 5 5 5 5 5 5 5 4 3 3 3 4 4 4 4 4 3 3 2 3 4 4 4 4 5 5 4 5 4 5 4 5 4 3 3 4 4 2 1 2
5 4 4 4 4 4 4 3 3 3 3 3 2 2 3 2 3 4 4 3 3 3 4 4 4 5 5 6 5 5 5 4 4 4 5 5 5 4 3 2 2 2 3
Wind_Direction
113 119 120 118 121 129 135 137 137 137 135 130 121 110 100 95 94 94 97 103 111 114 112 107 103 96 90 90 91 93 96 97 99 103 106 105 101 92 79 86 114 95 98
116 120 119 117 119 127 135 138 139 139 138 134 127 118 108 101 98 98 101 108 116 117 112 106 101 98 100 107 109 109 111 114 121 129 131 125 119 106 83 63 79 105 106
116 122 122 118 118 122 130 137 139 141 140 137 133 125 115 107 102 101 104 111 119 121 116 110 105 104 110 118 124 132 141 149 159 171 174 165 140 129 106 91 96 112 113
123 131 124 123 121 121 125 133 140 144 146 143 139 131 122 114 108 105 105 111 120 127 129 127 124 124 127 134 143 155 174 194 216 225 221 208 156 142 131 118 118 124 124
126 120 124 129 126 124 125 129 139 144 147 146 139 132 126 122 118 112 110 114 122 132 140 145 148 151 153 157 165 178 197 218 240 254 257 239 145 149 146 143 146 150 147
121 122 131 133 132 130 129 129 133 139 140 139 135 131 130 129 128 124 123 124 127 134 143 151 160 166 172 179 186 196 212 231 251 253 258 234 140 157 154 157 167 178 181
125 127 133 136 137 136 136 136 136 138 139 139 140 139 139 139 138 135 135 136 139 142 146 153 164 177 190 199 206 210 220 237 254 269 264 233 146 159 163 169 181 194 200
126 127 132 138 140 142 143 144 144 145 145 146 146 145 145 146 150 154 159 162 168 177 186 194 202 205 213 219 226 230 234 249 250 260 273 218 152 165 171 177 188 202 209
127 129 140 144 146 146 147 149 151 153 154 153 151 150 153 162 174 187 194 200 207 218 226 230 231 231 232 232 235 241 245 251 270 278 280 240 162 172 178 185 196 209 215
132 137 147 151 153 157 158 159 159 160 162 163 164 170 180 193 203 209 209 210 216 224 232 237 241 242 241 240 240 242 246 254 256 260 260 211 173 180 187 195 206 217 223
134 141 157 152 159 167 166 161 167 171 174 176 182 191 202 215 212 208 218 201 207 220 230 238 242 245 247 244 241 241 243 244 252 247 246 212 181 187 195 205 215 225 230
146 150 163 153 160 173 165 154 174 180 176 195 190 188 208 230 224 194 190 187 204 217 229 236 243 248 246 249 235 231 238 238 248 254 245 188 183 192 201 212 223 232 238
155 155 165 146 162 175 151 164 182 183 163 200 195 186 215 234 199 164 168 182 204 218 228 229 230 236 237 234 235 213 230 250 245 252 248 181 187 197 210 223 234 242 248
164 164 171 138 160 192 161 168 176 174 163 193 163 179 206 218 287 84 144 156 190 210 219 237 224 235 245 243 239 220 223 239 260 240 185 179 191 206 222 236 244 251 254
167 168 166 140 154 184 114 158 181 195 163 175 143 176 241 195 185 71 10 341 257 216 207 240 263 270 272 277 265 255 239 242 249 258 190 189 202 213 226 238 246 252 257
169 169 160 151 154 163 170 248 279 209 150 179 158 170 195 216 142 148 201 254 288 291 208 220 253 260 264 266 267 265 256 259 243 239 237 208 216 221 227 235 242 248 255
169 167 160 166 165 170 185 200 222 243 180 198 168 161 168 197 172 175 205 219 250 270 256 248 273 267 267 273 265 254 245 244 250 246 252 241 226 224 226 232 237 243 251
170 165 167 178 174 176 190 194 216 232 202 165 156 156 168 187 185 189 215 228 227 249 243 239 248 273 281 284 279 269 254 232 232 236 238 238 235 242 222 227 231 237 246
168 158 170 184 172 177 186 188 223 226 210 130 134 142 159 183 197 190 221 250 263 263 264 276 259 250 279 282 281 261 248 244 225 228 225 231 228 228 240 225 217 231 243
164 155 168 184 174 171 172 181 207 229 179 140 127 152 162 188 210 204 214 239 253 274 270 284 310 286 279 285 288 296 284 260 231 222 221 230 213 215 231 231 202 232 240
160 159 171 185 177 167 171 184 192 203 202 201 207 207 204 205 217 221 251 273 268 276 283 280 285 289 279 268 276 288 284 267 230 201 210 233 232 215 222 223 214 233 242
165 167 175 186 180 178 182 183 184 188 200 215 225 220 218 216 221 229 210 229 242 262 284 286 286 276 277 273 268 290 294 303 303 236 208 203 221 222 247 250 206 214 240
174 179 189 189 185 187 186 181 188 183 208 214 214 215 217 219 215 219 225 231 241 242 249 257 259 261 266 272 249 243 270 287 316 281 232 219 193 205 246 259 248 208 253
174 179 181 185 189 187 185 195 199 205 214 219 215 212 206 213 219 222 231 235 243 251 257 258 256 254 259 268 272 243 237 249 267 301 295 251 203 213 230 252 278 354 39
122 150 166 172 180 183 188 201 210 225 231 231 212 213 203 204 218 227 226 235 243 253 263 267 275 269 261 259 261 263 258 249 236 243 275 294 283 248 218 214 200 121 71
42 70 106 127 137 153 172 185 205 230 242 254 231 217 215 219 218 227 232 238 248 252 253 255 262 266 264 264 266 265 259 254 248 241 258 273 276 269 231 181 168 132 101